Minot, ND

7:24 AM CST on February 19, 2017 (GMT -0600)
Minot International

Weather History for KMOT - October, 2010

Change the Weather History Date:

Wednesday, October 20, 2010

  Actual Average Record
Temperature  
Mean Temperature 47 °F 43 °F  
Max Temperature 56 °F 53 °F 80 °F (1947)
Min Temperature 37 °F 32 °F 11 °F (1905)
Degree Days  
Heating Degree Days 18 22  
Month to date heating degree days 207 361  
Since 1 July heating degree days 447 681  
Cooling Degree Days 0 0  
Month to date cooling degree days 0 0  
Year to date cooling degree days 463 444  
Moisture  
Dew Point 26 °F    
Average Humidity 45    
Maximum Humidity 65    
Minimum Humidity 24    
Precipitation  
Precipitation 0.00 in 0.03 in 0.80 in (1908)
Month to date precipitation 0.04 0.83  
Year to date precipitation 20.19 15.73  
Sea Level Pressure  
Sea Level Pressure 29.93 in    
Wind  
Wind Speed 16 mph (West)    
Max Wind Speed 29 mph    
Max Gust Speed 36 mph    
Visibility 10 miles    
Events      
T = Trace of Precipitation, MM = Missing Value Source: NWS Daily Summary

Daily Weather History Graph

Daily Weather History Graph

Search for Another Location

Airport or City:

Trip Planner

Search our weather history database for the weather conditions in past years. The results will help you decide how hot, cold, wet, or windy it might be!

Date:

Astronomy

Oct. 20, 2010 Rise Set
Actual Time 8:12 AM CDT 6:46 PM CDT
Civil Twilight 7:40 AM CDT 7:18 PM CDT
Nautical Twilight 7:04 AM CDT 7:54 PM CDT
Astronomical Twilight 6:28 AM CDT 8:30 PM CDT
Moon 5:26 PM CDT (10/20) 5:49 AM CDT (10/20)
Length of Visible Light 11h 37m
Length of Day
10h 34m
Waxing Gibbous, 95% of the Moon is Illuminated
Oct 20
Waxing Gibbous
Oct 22
Full
Oct 30
Last Quarter
Nov 5
New
Nov 13
First Quarter

Hourly Weather History & Observations

Time (CDT) Temp. Windchill Dew Point Humidity Pressure Visibility Wind Dir Wind Speed Gust Speed Precip Events Conditions
12:54 AM 48.9 °F - 32.0 °F 52% 29.83 in 10.0 mi SW 12.7 mph - N/A   Clear
1:54 AM 46.0 °F 41.0 °F 32.0 °F 58% 29.81 in 10.0 mi SW 10.4 mph - N/A   Clear
2:54 AM 46.0 °F 40.6 °F 32.0 °F 58% 29.80 in 10.0 mi SW 11.5 mph - N/A   Clear
3:54 AM 50.0 °F - 33.1 °F 52% 29.79 in 10.0 mi WSW 17.3 mph - N/A   Overcast
4:54 AM 50.0 °F - 32.0 °F 50% 29.80 in 10.0 mi West 19.6 mph - N/A   Clear
5:54 AM 46.0 °F 39.3 °F 32.0 °F 58% 29.82 in 10.0 mi West 16.1 mph - N/A   Clear
6:54 AM 45.0 °F 38.2 °F 32.0 °F 60% 29.84 in 10.0 mi West 15.0 mph - N/A   Scattered Clouds
7:54 AM 44.1 °F 37.1 °F 33.1 °F 65% 29.86 in 10.0 mi West 15.0 mph - N/A   Scattered Clouds
8:54 AM 46.0 °F 39.0 °F 33.1 °F 61% 29.88 in 10.0 mi WNW 17.3 mph 24.2 mph N/A   Overcast
9:54 AM 48.0 °F - 33.1 °F 56% 29.93 in 10.0 mi WNW 19.6 mph 28.8 mph N/A   Clear
10:54 AM 50.0 °F - 28.9 °F 44% 29.95 in 10.0 mi NW 19.6 mph 26.5 mph N/A   Clear
11:54 AM 51.1 °F - 26.1 °F 38% 29.96 in 10.0 mi WNW 21.9 mph 29.9 mph N/A   Clear
12:54 PM 53.1 °F - 23.0 °F 31% 29.97 in 10.0 mi WNW 23.0 mph 28.8 mph N/A   Clear
1:54 PM 55.0 °F - 21.9 °F 28% 29.97 in 10.0 mi WNW 20.7 mph 34.5 mph N/A   Clear
2:54 PM 54.0 °F - 21.0 °F 28% 29.98 in 10.0 mi WNW 23.0 mph 32.2 mph N/A   Clear
3:54 PM 54.0 °F - 21.0 °F 28% 29.97 in 10.0 mi WNW 18.4 mph - N/A   Clear
4:54 PM 54.0 °F - 18.0 °F 24% 29.97 in 10.0 mi WNW 18.4 mph 29.9 mph N/A   Clear
5:54 PM 52.0 °F - 19.9 °F 28% 30.00 in 10.0 mi West 11.5 mph - N/A   Clear
6:54 PM 48.9 °F - 19.9 °F 32% 30.01 in 10.0 mi WNW 11.5 mph - N/A   Clear
7:54 PM 46.9 °F - 19.9 °F 34% 30.03 in 10.0 mi West 11.5 mph - N/A   Clear
8:54 PM 44.6 °F 38.4 °F 19.4 °F 37% 29.99 in 10.0 mi West 12.7 mph - N/A   Clear
9:54 PM 44.1 °F 38.1 °F 21.0 °F 40% 30.04 in 10.0 mi West 11.5 mph - N/A   Clear
10:54 PM 42.1 °F 36.1 °F 21.0 °F 43% 30.05 in 10.0 mi West 10.4 mph - N/A   Clear
11:54 PM 39.9 °F 34.5 °F 21.9 °F 49% 30.06 in 10.0 mi West 8.1 mph - N/A   Clear